Location: ??
(35.6850°N, 139.7514°E)
Time: 23:07:51
(UTC+00:00)

Daily predictions for brighter satellites

Satellite Brightness Start Highest point End
(mag) Time Altitude Azimuth Time Altitude Azimuth Time Altitude Azimuth
NOSS 3-1 (C) 4.4 17:42:21 63° SSE 17:42:21 63° SSE 17:49:49 10° SSE
Cosmos 2297 Rocket 4.1 17:43:48 20° SE 17:45:32 23° E 17:49:54 10° NE
Envisat 4.0 17:52:44 10° NNE 17:56:50 43° ENE 17:56:50 43° ENE
Cosmos 2322 3.9 18:08:41 10° NNW 18:14:21 67° ENE 18:19:58 10° SSE
ATLAS 3B R/B 3.1 18:17:36 52° SSW 18:17:36 52° SSW 18:23:32 10° SSE
OAO 2 Rocket 4.4 18:21:53 35° SE 18:21:53 35° SE 18:24:56 10° ESE
BlueWalker 3 4.0 18:20:22 23° NE 18:20:22 23° NE 18:23:29 10° E
COSMOS 2428 3.1 18:16:55 10° NNW 18:22:35 61° ENE 18:28:12 10° SSE
Cosmos 2227 Rocket 3.8 18:27:08 10° SSE 18:32:08 33° ESE 18:37:09 10° NE
Cosmos 2219 Rocket 4.0 18:36:41 17° S 18:36:41 17° S 18:37:57 10° S
PAYLOAD A 4.2 18:27:39 10° N 18:31:41 56° NNW 18:31:41 56° NNW
YAOGAN 11 4.3 18:28:49 10° SSE 18:33:18 71° ENE 18:37:45 10° N
COBE Rocket 3.9 18:29:30 10° NNE 18:34:23 79° E 18:35:46 48° S
CBERS-1 4.1 18:29:45 10° NNE 18:34:53 77° ESE 18:36:47 39° S
Meteor 1-27 Rocket 3.9 18:31:56 19° S 18:36:02 70° E 18:41:42 10° NNE
Delta 2 Rocket 3.9 18:37:13 62° S 18:37:13 62° S 18:41:56 10° ESE
Cosmos 1536 3.3 18:33:12 10° N 18:40:02 15° SSE 18:40:50 10° SSE
CZ-2C R/B 3.4 18:37:34 10° N 18:40:13 30° NNW 18:40:13 30° NNW
Okean 1 3.5 18:43:45 57° SE 18:44:14 63° E 18:48:02 10° NNE
ARIANE 5 R/B 3.9 18:43:32 10° NNE 18:48:10 37° E 18:52:45 10° SSE
Cosmos 1745 Rocket 4.2 18:43:06 10° S 18:49:22 73° E 18:55:43 10° N
Cosmos 1151 Rocket 2.8 18:50:27 65° SSW 18:51:01 79° W 18:55:24 10° N
Cosmos 44 Rocket 3.3 18:51:34 58° W 18:52:13 64° WNW 18:57:20 10° NNE
NOSS 3-1 (A) 4.2 18:46:44 10° NW 18:54:34 60° WSW 19:03:34 10° SSE
Meteor 1-11 Rocket 3.7 18:53:57 10° NNW 18:59:53 77° W 19:05:50 10° S
Cosmos 1328 Rocket 4.1 18:56:34 10° S 19:00:53 58° E 19:05:12 10° NNE
H-2A R/B 3.2 18:59:45 10° NNE 19:03:10 54° E 19:06:33 10° S
Cosmos 1726 4.4 19:01:48 10° NNE 19:04:39 24° ENE 19:07:30 10° SE
Cosmos 1666 Rocket 4.2 19:01:18 10° N 19:05:35 55° E 19:09:49 10° SSE
Cosmos 1980 4.4 19:00:57 10° NNW 19:06:31 56° ENE 19:12:03 10° SE
ERS-2 3.5 19:08:27 10° NNE 19:11:20 33° E 19:14:12 10° SSE
Cosmos 614 Rocket 4.5 19:08:21 10° N 19:13:28 62° ENE 19:18:35 10° SSE
Cosmos 1867 3.7 19:09:08 14° NW 19:13:34 51° WSW 19:18:48 10° S
Meteor 2-9 Rocket 4.2 19:09:43 10° N 19:15:34 89° E 19:21:15 10° S
Helios 1A 3.1 19:14:46 10° SSE 19:18:51 75° ENE 19:22:56 10° N
CZ-2D R/B 4.3 19:17:13 10° NNE 19:21:30 55° E 19:25:46 10° S
H-2A R/B 2.9 19:17:27 10° NNE 19:22:48 56° E 19:28:01 10° S
Cosmos 2297 Rocket 2.6 19:25:41 19° WSW 19:29:14 41° WNW 19:34:34 10° N
Cosmos 1633 Rocket 3.0 19:30:11 10° N 19:34:35 82° W 19:38:59 10° S
Envisat 4.4 19:32:49 10° NNW 19:36:11 18° WNW 19:36:59 18° WNW
Sich 1 4.2 19:34:48 10° NW 19:38:01 21° W 19:41:14 10° SW
Cosmos 2219 3.3 19:33:13 10° SSW 19:38:52 83° ESE 19:44:33 10° NNE
CZ-3B R/B 4.0 19:39:58 10° S 19:42:49 22° SE 19:45:17 10° ENE
Cosmos 1805 4.5 19:39:39 10° N 19:43:17 43° E 19:46:53 10° SSE
USA 215 3.2 19:37:22 10° SE 19:43:55 75° SW 19:50:29 10° NW
Cosmos 2237 Rocket 2.1 19:39:02 10° NNW 19:44:41 73° WSW 19:50:17 10° SSE
ATLAS CENTAUR R/B 4.0 19:43:44 10° NNE 19:45:38 14° NE 19:47:32 10° E
Cosmos 2344 3.5 19:40:05 10° SW 19:47:58 66° NW 19:55:14 10° NNE
Cosmos 1484 Rocket 4.1 19:45:58 10° NNW 19:48:30 18° WNW 19:49:49 15° W
SKYMED 2 4.2 19:45:53 10° SSE 19:50:09 61° ENE 19:54:26 10° N
Nadezhda 1 Rocket 4.4 19:46:27 10° NNW 19:52:12 40° W 19:57:52 10° SSW
PSLV R/B 4.3 19:49:06 10° NNE 19:53:10 54° E 19:57:13 10° S
Meteor 2-10 3.9 19:48:49 10° NNW 19:54:02 74° W 19:59:03 10° S
SL-16 R/B 3.7 19:48:44 10° N 19:54:03 39° ENE 19:59:21 10° SE
NOSS 0 Rocket 4.5 19:51:43 10° NW 19:57:18 35° WSW 20:02:52 10° SSW
BlueWalker 3 2.4 19:55:14 10° WNW 19:58:52 40° SW 20:02:30 10° SSE
SL-08 R/B 3.4 19:59:30 10° SSE 20:04:15 86° ENE 20:09:08 10° NNW
ARGOS 3.8 20:00:38 10° NNE 20:06:00 64° E 20:11:21 10° S
COSMOS 2428 4.1 20:03:01 10° WNW 20:06:12 15° W 20:09:24 10° SW
NOAA 12 4.3 20:01:43 10° NNE 20:07:01 80° ESE 20:12:19 10° S
SAR-Lupe-2 3.9 20:03:58 10° NNE 20:07:32 72° ESE 20:11:05 10° S
Cosmos 1939 Rocket 3.3 20:04:46 10° N 20:08:22 37° WNW 20:11:58 10° SW
Cosmos 1470 Rocket 3.8 20:06:40 10° NNW 20:11:00 51° W 20:15:19 10° SSW
FengYun 1-2 T 4.3 20:07:35 10° N 20:13:10 81° WNW 20:18:46 10° SSW
Cosmos 2227 Rocket 3.0 20:11:11 10° WSW 20:16:07 30° WNW 20:21:04 10° N
